Location: Taupo
(38.6830°S, 176.0830°E)
Time: 03:42:59
(UTC+13:00)

COSMOS 2428 - Pass Details

Date: 24 January 2019
Orbit: 845 x 856 km, 70.9° (Epoch: 20 October)

Event Time Altitude Azimuth Distance (km) Brightness Sun altitude
Exits shadow 22:59:14 42° 75° (ENE) 1,208 3.1 -22.5°
Drops below altitude 10° 23:04:38 10° 143° (SE) 2,514 5.3 -23.1°
Sets 23:07:13 0° 150° (SSE) 3,459 6.2 -23.4°
